Miscellaneous Local Product
Issued by NWS Hastings, NE

Home | Current Version | Previous Version | Text Only | Print | Product List | Glossary On
Versions: 1 2 3 4 5 6 7 8 9 10 11 12 13 14 15 16 17 18 19 20 21 22 23 24 25 26 27 28 29 30 31 32 33 34 35 36 37 38 39 40 41 42 43 44 45 46 47 48 49 50
853
AXUS43 KGID 210002
MISGRI

GID CWA HOURLY WEATHER ROUNDUP
NATIONAL WEATHER SERVICE HASTINGS NE
700 PM CDT FRI SEP 20 2019

NOTE: "FAIR" INDICATES FEW OR NO CLOUDS BELOW 12,000 FEET WITH NO
SIGNIFICANT WEATHER AND/OR OBSTRUCTIONS TO VISIBILITY.

...SOUTH CENTRAL NEBRASKA...

CITY           SKY/WX    TMP DP  RH WIND       PRES   REMARKS
GRAND ISLAND   CLEAR     77  65  66 SE17G31   29.83F
KEARNEY        PTCLDY    78  67  68 SE23      29.82R
HASTINGS       PTCLDY    77  66  68 SE17G28   29.85R
ORD            FAIR      79  65  62 SE16G28   29.77F
YORK           CLEAR     75  68  78 SE15G25   29.86S
AURORA         CLEAR     78  66  66 SE16G28   29.84F
LEXINGTON      FAIR      81  65  57 S20G26    29.79R
HOLDREGE       MOCLDY    79  66  64 SE20G26   29.82R
HEBRON         CLOUDY    76  67  74 SE13      29.88S

...NEBRASKA PANHANDLE...

CITY           SKY/WX    TMP DP  RH WIND       PRES   REMARKS
CHADRON        CLOUDY    73  59  61 SE9       29.69R
ALLIANCE       CLEAR     77  56  48 SE16      29.70R
SCOTTSBLUFF    MOCLDY    67  52  58 N25G37    29.69R
SIDNEY         CLEAR     82  51  34 SE21G30   29.71F

...WESTERN AND NORTH CENTRAL NEBRASKA...

CITY           SKY/WX    TMP DP  RH WIND       PRES   REMARKS
VALENTINE      MOCLDY    83  60  45 S25G43    29.70S
AINSWORTH      MOCLDY    81  63  54 S20G31    29.74S
ONEILL         FAIR      81  63  54 SE18G30   29.78F
BROKEN BOW     MOCLDY    79  65  62 SE15      29.80R
IMPERIAL       CLEAR     83  54  36 SE24G36   29.72S
NORTH PLATTE   CLEAR     82  61  48 S14G30    29.74F
MCCOOK         CLEAR     83  60  45 SE17G32   29.75F

...EASTERN NEBRASKA...

CITY           SKY/WX    TMP DP  RH WIND       PRES   REMARKS
NORFOLK        NOT AVBL
SO SIOUX CITY  CLEAR     80  66  62 S13       29.85F
TEKAMAH        PTCLDY    79  68  69 S14G25    29.86F
COLUMBUS       PTCLDY    78  67  68 SE23G30   29.85S
OMAHA EPPLEY   MOCLDY    80  67  64 S20G33    29.89R
MILLARD        CLOUDY    80  69  69 S15G24    29.90R
LINCOLN        PTCLDY    77  66  68 S16G28    29.88F
NEBRASKA CITY  MOCLDY    76  72  85 S13G22    29.92F
BEATRICE       CLOUDY    75  70  84 SE13G22   29.89F
FALLS CITY     MOCLDY    73  70  90 SE6       29.91F

...NORTHERN KANSAS...

CITY           SKY/WX    TMP DP  RH WIND       PRES   REMARKS
GOODLAND       PTCLDY    80  63  55 S25G38    29.77R
HILL CITY      PTCLDY    83  63  50 SE15G28   29.81S
PHILLIPSBURG   CLEAR     81  64  57 SE15G24   29.82S
OBERLIN        FAIR      81  61  49 S24G35    29.82R
SMITH CENTER   PTCLDY    79  68  69 SE21      29.86R
HAYS           PTCLDY    82  65  56 SE20G28   29.83S
RUSSELL        CLEAR     81  66  60 SE23      29.83S
CONCORDIA      PTCLDY    76  69  79 SE16G25   29.88R
SALINA         MOCLDY    77  68  73 SE13      29.88R
TOPEKA         CLOUDY    73  68  84 S13       29.94R



USA.gov is the U.S. government's official web portal to all federal, state and local government web resources and services.